Location: Newark
(12.4436°N, 0.6167°W)
Time: 02:54:46
(UTC+00:00)

Vanguard 2 - Pass Details

Date: 13 December 2019
Orbit: 553 x 2938 km, 32.9° (Epoch: 19 January)

Event Time Altitude Azimuth Distance (km) Brightness Sun altitude
Rises 00:08:01 0° 261° (W) 4,898 - -79.0°
Reaches altitude 10° 00:10:58 10° 266° (W) 4,195 - -78.8°
Maximum altitude 00:22:46 51° 339° (NNW) 2,944 - -77.6°
Drops below altitude 10° 00:39:32 10° 51° (NE) 5,752 - -75.2°
Exits shadow 00:40:37 - 53° (NE) 5,982 12.0 -75.0°
Sets 00:44:26 0° 57° (ENE) 6,783 12.4 -74.4°
